Regional Weather Roundup
Issued by NWS

Home | Current Version | Previous Version | Text Only | Print | Product List | Glossary On
Versions: 1 2 3 4 5 6 7 8 9 10 11 12 13 14 15 16 17 18 19 20 21 22 23 24 25 26 27 28 29 30 31 32 33 34 35 36 37 38 39 40 41 42 43 44 45 46 47 48 49 50
000
ASUS43 KTOP 231959
RWRKS

WEATHER ROUNDUP FOR KANSAS
NATIONAL WEATHER SERVICE GOODLAND KS
300 PM CDT SAT SEP 23 2017

NOTE:  "FAIR" INDICATES FEW OR NO CLOUDS BELOW 12,000 FEET WITH NO
SIGNIFICANT WEATHER AND/OR OBSTRUCTIONS TO VISIBILITY.

KSZ001>006-013>018-027>032-041>047-232100-
NORTHWEST KANSAS

CITY           SKY/WX    TMP DP  RH WIND       PRES   REMARKS
GOODLAND       CLOUDY    58  53  84 NW8       29.91F
HAYS           PTSUNNY   88  61  40 S22       29.84F
HILL CITY      PTSUNNY   91  64  40 S22G33    29.82F
RUSSELL        MOSUNNY   91  61  36 S22G31    29.85F
$$

KSZ061>065-074>080-084>089-232100-
SOUTHWEST KANSAS

CITY           SKY/WX    TMP DP  RH WIND       PRES   REMARKS
DODGE CITY     MOSUNNY   90  60  36 S31       29.88F
ELKHART          N/A     79  66  64 SE16        N/A
GARDEN CITY    SUNNY     88  60  38 S22G36    29.86F
GREAT BEND     MOSUNNY   90  64  42 S22G31    29.87F
LIBERAL        PTSUNNY   85  63  47 S25G36    29.87F
$$

KSZ066>073-081>083-090>101-232100-
SOUTHEAST KANSAS

CITY           SKY/WX    TMP DP  RH WIND       PRES   REMARKS
CHANUTE        SUNNY     88  66  48 SE13      29.97F
COFFEYVILLE    SUNNY     89  67  47 S10       29.95F
HUTCHINSON     MOSUNNY   90  63  40 S20G28    29.91F
MEDICINE LODGE   N/A     87  62  43 S16G26    29.89F
NEWTON         MOSUNNY   88  63  43 S16G26    29.94F
PARSONS        MOSUNNY   90  66  45 SE7       29.97F
WICHITA INTL   MOSUNNY   89  64  43 SE16G25   29.92F
WICHITA JABRA  PTSUNNY   87  65  47 S15G25    29.93F
WINFIELD       MOSUNNY   91  65  41 S16G25    29.95F
$$

KSZ007>012-019>026-033>040-048>060-102>105-232100-
NORTHEAST KANSAS

CITY           SKY/WX    TMP DP  RH WIND       PRES   REMARKS
CONCORDIA      MOSUNNY   87  65  47 S20G26    29.89F
EMPORIA        SUNNY     88  64  44 S14G24    29.96F
LAWRENCE       MOSUNNY   90  69  50 S12       29.96F
MANHATTAN      MOSUNNY   92  63  38 S15       29.92F
OLATHE IND     MOSUNNY   88  68  51 S10       29.99F
OLATHE EXE     MOSUNNY   86  68  54 S10       29.99F
SALINA         SUNNY     94  60  32 S25       29.89F
TOPEKA BILLARD MOSUNNY   90  68  48 SE13G21   29.95F
TOPEKA FORBES  MOSUNNY   90  66  45 S15       29.96F
$$



USA.gov is the U.S. government's official web portal to all federal, state and local government web resources and services.